Regional Weather Roundup
Issued by NWS

Home | Current Version | Previous Version | Text Only | Print | Product List | Glossary Off
Versions: 1 2 3 4 5 6 7 8 9 10 11 12 13 14 15 16 17 18 19 20 21 22 23 24 25 26 27 28 29 30 31 32 33 34 35 36 37 38 39 40 41 42 43 44 45 46 47 48 49 50

000
ASUS43 KBIS 280620
RWRND

NORTH DAKOTA REGIONAL WEATHER ROUNDUP
NATIONAL WEATHER SERVICE BISMARCK ND
1200 AM CST WED JAN 28 2015

NOTE: "FAIR" INDICATES FEW OR NO CLOUDS BELOW 12,000 FEET WITH NO
SIGNIFICANT WEATHER AND/OR OBSTRUCTIONS TO VISIBILITY.


NDZ001>003-009>011-017-280700-
NORTHWEST NORTH DAKOTA

CITY           SKY/WX    TMP DP  RH WIND       PRES   REMARKS
WILLISTON      CLOUDY    32  29  88 CALM      29.76F
6HR MIN TEMP:  30; 6HR MAX TEMP:  38;

MINOT          CLOUDY    31  28  89 NW5       29.77R
MINOT AFB      CLOUDY    29  29 100 NW3       29.76S
$$

NDZ018>021-031>035-040>046-280700-
SOUTHWEST NORTH DAKOTA

CITY           SKY/WX    TMP DP  RH WIND       PRES   REMARKS
BISMARCK       MOCLDY    33  31  92 NE5       29.79S
6HR MIN TEMP:  32; 6HR MAX TEMP:  41;

DICKINSON      PTCLDY    34  28  79 W3        29.75F
GARRISON         N/A     32  30  92 CALM      29.77S
6HR MIN TEMP:  30; 6HR MAX TEMP:  43;

HETTINGER ARPT PTCLDY    32  28  85 W3        29.79S
$$

NDZ004>008-012>016-024-026-027-054-280700-
NORTHEAST NORTH DAKOTA

CITY           SKY/WX    TMP DP  RH WIND       PRES   REMARKS
GRAND FORKS    CLOUDY    33  31  92 S14       29.90R FOG
GRND FRKS AFB  CLOUDY    32  31  95 S14       29.89S
DEVILS LAKE    CLOUDY    34  30  86 S12       29.80R VSB 3/4
$$

NDZ022-023-025-028>030-036>039-047>053-280700-
SOUTHEAST NORTH DAKOTA

CITY           SKY/WX    TMP DP  RH WIND       PRES   REMARKS
FARGO          CLOUDY    35  31  85 S18G25    29.91S
6HR MIN TEMP:  33; 6HR MAX TEMP:  35;

JAMESTOWN      FOG       33  33 100 S13       29.82R VSB 1/4
$$




USA.gov is the U.S. government's official web portal to all federal, state and local government web resources and services.